Theta_e
311 310 309 307 304 303 302 301 301 301 301 301 301 301 302 302 302 302 303 303 304 306 306 306 306 306 306 307 307 307 307 311 318 321 322 321 320 322 320 320 319 316 318 328 334 331 334 334 335 340 341 346 346 346 348 347 348 348 354 355 348 350 350 349 351 348 348 349 344 346 349 347 348 346 346 347 347 349 349 348 349 349 349 351 352 352 352 351
309 307 305 303 302 302 301 301 301 301 301 301 302 302 302 301 301 302 303 304 305 305 306 306 306 307 307 307 307 307 309 315 321 322 320 317 319 321 321 321 321 318 319 327 330 330 333 333 335 338 339 344 344 345 345 345 348 347 354 357 351 354 355 352 352 351 349 352 350 345 348 348 348 344 345 349 349 349 349 349 351 350 350 351 351 352 352 351
305 304 302 302 302 301 301 301 301 300 301 302 303 302 302 302 302 303 304 304 305 305 306 306 307 307 307 307 307 308 313 319 322 323 322 317 319 319 320 321 322 320 320 326 328 328 332 333 336 337 340 343 343 344 344 344 348 347 349 357 358 354 353 351 351 351 348 353 355 346 347 347 345 343 346 349 348 349 349 350 352 352 351 350 350 350 351 351
303 303 302 301 301 301 301 301 300 300 301 302 302 301 302 302 302 303 304 304 304 305 306 307 308 308 307 308 307 310 317 322 322 325 324 322 322 321 320 319 321 319 320 325 327 328 331 332 335 337 341 343 343 343 344 344 346 349 345 352 358 353 352 350 349 351 348 352 353 344 348 347 346 344 346 348 348 349 349 348 351 352 351 350 349 349 351 350
303 302 301 301 301 301 301 301 301 300 300 301 300 301 301 302 302 304 304 304 305 306 307 307 308 307 308 308 307 313 319 322 322 325 324 327 324 322 322 319 319 317 320 325 325 328 329 331 334 336 341 343 343 343 344 343 343 348 346 349 355 357 360 353 348 351 350 352 349 346 348 347 347 344 346 347 348 349 349 347 348 351 351 350 349 349 349 349
302 301 301 301 301 301 301 301 301 300 301 300 300 301 301 302 303 304 304 305 306 306 307 308 308 309 310 308 309 316 321 320 325 325 321 325 325 325 324 321 320 318 322 325 325 328 328 330 333 337 341 343 343 342 343 343 342 345 345 347 352 358 363 354 349 353 353 351 348 347 346 346 347 346 347 346 346 347 346 346 346 350 350 350 350 349 349 349
301 300 300 300 300 301 301 300 301 300 301 300 300 301 301 302 303 304 304 305 307 307 309 310 310 312 311 309 313 320 321 319 324 325 322 321 321 323 324 323 320 320 323 325 326 328 328 330 334 337 341 343 342 341 342 342 342 345 344 345 350 351 352 350 350 352 352 348 348 347 345 348 348 346 347 345 346 344 345 347 346 349 351 350 350 350 349 349
300 300 300 300 300 300 300 300 301 301 301 301 300 301 301 302 303 304 304 306 308 310 312 313 314 315 312 313 320 322 320 320 320 323 325 321 320 320 322 324 321 322 325 325 328 330 331 333 335 338 342 344 342 340 341 342 341 343 343 343 348 350 350 352 351 346 347 347 347 345 344 347 347 345 345 346 345 344 347 347 345 347 349 351 350 350 351 349
300 300 300 300 300 300 300 300 301 301 301 301 300 301 301 302 303 304 305 307 310 313 314 314 315 315 313 317 323 322 324 324 321 323 324 322 322 318 320 324 322 323 325 326 329 333 335 335 336 338 342 343 341 339 339 340 341 341 343 342 342 348 354 355 350 345 347 347 347 346 345 345 344 343 344 346 345 344 348 348 346 347 348 350 350 350 351 350
300 300 300 300 300 300 300 300 300 301 301 301 301 301 302 303 304 304 305 308 313 316 315 315 316 315 314 319 321 322 326 323 323 326 324 324 325 321 322 326 324 324 327 328 328 334 336 334 336 338 341 342 340 339 337 338 339 340 341 342 342 342 349 351 348 347 347 347 347 347 345 343 344 344 344 346 344 344 347 348 346 347 348 350 351 350 351 350
300 300 299 299 300 300 300 300 300 301 301 301 301 302 303 303 304 305 307 312 316 317 316 316 317 315 317 320 319 322 325 320 323 327 327 325 326 324 324 327 328 327 329 330 329 333 334 333 335 337 341 342 339 338 336 336 338 339 341 342 343 342 342 344 347 348 346 348 347 345 346 345 344 342 344 346 344 345 346 347 347 346 349 350 350 351 351 351
300 300 300 299 300 300 300 300 300 301 301 301 302 304 304 304 306 306 309 315 318 318 316 317 316 317 321 320 318 321 323 322 322 326 327 324 326 327 325 327 329 328 329 330 330 332 333 333 333 335 340 340 338 338 336 337 336 337 340 342 343 344 344 343 344 346 347 347 346 345 344 344 346 340 343 347 345 345 345 347 347 346 349 350 350 351 352 351
301 301 300 300 300 300 300 300 300 301 301 302 303 305 306 307 308 308 312 317 318 317 316 317 318 319 322 322 321 322 322 323 323 325 326 325 326 326 326 328 328 328 328 329 331 332 331 331 330 331 336 337 336 335 336 337 338 338 341 343 344 341 342 344 343 345 348 346 346 344 333 335 347 342 341 344 344 347 347 348 348 347 348 348 349 350 352 353
302 302 301 300 300 300 300 299 300 301 301 303 305 307 309 310 310 310 313 317 318 317 316 318 320 322 322 323 324 323 323 323 323 324 325 327 326 324 325 328 327 328 328 328 330 331 329 330 329 329 331 334 335 334 335 336 338 341 340 341 343 332 333 344 343 342 346 344 346 345 328 331 344 341 342 343 345 350 348 348 350 348 349 348 349 350 352 353
303 303 302 301 300 300 300 299 300 301 302 305 308 310 311 312 312 312 314 318 318 316 316 319 321 324 324 325 325 325 325 323 323 323 323 325 327 326 325 328 328 327 327 328 328 330 330 328 327 327 329 332 333 333 336 336 337 341 333 329 337 330 331 344 341 341 344 342 345 343 329 334 342 340 343 344 346 351 347 348 349 349 350 349 349 351 351 352
302 302 302 302 301 301 300 300 300 302 304 307 310 311 312 313 313 313 316 319 318 317 318 322 324 325 326 326 327 326 326 324 322 323 323 322 326 328 329 329 328 326 328 329 329 330 331 329 328 327 329 330 331 333 335 331 330 338 332 322 328 329 329 337 339 340 342 341 343 341 333 337 342 339 342 343 347 350 347 348 349 348 349 349 349 352 352 352
302 302 302 302 302 301 300 300 300 303 306 308 311 312 313 315 315 315 318 319 319 320 322 326 327 326 327 326 326 324 325 326 322 322 322 321 323 327 330 330 327 327 328 329 330 330 331 330 329 328 329 329 330 332 328 322 320 328 331 325 327 331 328 328 334 338 339 340 342 341 339 339 340 342 342 340 345 349 348 347 348 348 348 350 350 351 353 353
302 302 302 302 302 301 301 300 301 304 306 309 312 312 315 318 317 315 319 323 324 324 325 327 327 326 327 327 326 325 325 326 324 323 321 320 321 326 331 330 328 328 329 330 330 330 330 331 330 330 329 327 331 331 322 321 323 322 323 323 324 329 327 326 330 337 338 340 341 340 340 340 341 341 342 340 343 349 350 346 345 349 349 351 352 350 353 353
302 302 302 302 302 301 301 300 301 305 306 309 312 314 318 321 318 319 324 327 328 330 331 329 327 325 325 326 326 326 327 325 324 323 322 321 320 326 332 332 330 330 331 330 330 329 330 333 332 328 327 327 330 331 327 330 331 329 329 326 322 322 325 330 334 336 338 339 341 340 338 340 341 340 341 340 340 348 350 348 346 348 349 349 352 351 353 354
302 302 302 302 302 301 301 300 302 306 306 307 311 314 316 315 315 319 321 319 320 324 324 322 323 324 324 326 327 327 326 324 324 322 322 321 321 328 332 331 331 331 331 330 330 330 332 335 332 328 329 330 330 331 334 336 334 334 333 329 325 323 323 332 337 335 338 336 337 341 340 341 341 340 341 340 342 345 347 350 349 347 348 351 353 353 354 354
302 302 302 302 301 301 301 300 302 306 307 308 311 313 311 309 310 312 313 312 313 314 314 314 317 320 322 324 324 325 324 324 324 322 321 321 324 329 330 329 331 331 330 331 332 333 334 332 331 331 331 332 332 333 335 337 336 332 330 326 324 323 325 333 336 335 338 335 334 340 340 340 342 340 340 340 343 344 343 349 351 349 349 351 355 354 354 354
301 301 301 301 301 301 300 301 303 307 308 311 314 313 309 309 310 310 311 311 312 313 313 314 314 315 317 318 320 321 320 322 324 322 321 322 325 329 329 330 331 332 332 332 333 332 330 329 333 334 332 332 333 333 334 335 335 331 329 324 319 323 328 331 335 337 337 334 333 338 337 337 342 340 340 340 341 343 343 343 350 353 351 352 355 356 355 354
302 302 301 301 301 301 300 301 305 309 310 314 316 311 309 309 309 310 312 312 312 314 313 314 315 314 314 315 318 318 319 322 324 322 322 323 326 327 328 331 332 332 332 333 332 326 323 326 333 334 332 333 333 332 333 331 331 331 329 320 316 324 324 320 328 336 337 335 335 338 335 336 342 341 340 340 339 340 342 340 344 352 354 354 354 355 355 354
302 302 302 301 301 302 301 302 307 309 311 314 313 309 308 309 310 311 312 313 313 314 314 315 315 316 315 315 317 318 319 322 324 324 322 323 325 324 327 331 331 331 332 333 330 325 324 326 330 332 332 332 331 331 332 328 325 330 332 324 319 324 325 321 329 334 333 335 338 336 327 327 337 341 340 340 340 339 339 341 341 345 353 354 353 353 353 353
302 302 302 302 302 301 301 305 309 309 312 315 310 308 308 308 310 311 312 315 316 316 317 318 317 316 318 316 317 317 319 322 324 326 324 323 324 324 324 328 329 330 331 330 328 325 326 327 327 329 329 330 329 329 330 328 323 323 331 331 326 327 327 328 331 329 321 321 333 334 318 318 332 338 341 340 340 341 339 341 342 343 351 352 351 353 352 354
302 302 302 302 302 301 303 307 309 310 314 314 309 308 308 308 311 311 313 317 319 321 320 321 320 317 318 318 317 317 318 321 324 326 326 323 324 324 323 324 328 329 330 330 329 326 325 326 327 327 328 328 327 328 329 330 323 319 328 332 330 330 327 327 327 321 313 314 330 335 320 316 324 331 340 341 340 341 341 340 340 343 347 348 350 351 351 354
302 302 301 302 302 302 305 308 308 312 315 311 309 308 307 309 311 311 317 319 319 321 321 320 320 317 317 318 317 317 316 319 322 325 326 324 323 323 322 323 325 326 328 329 323 323 326 326 327 328 329 328 326 325 328 331 323 319 329 331 329 329 327 327 325 318 317 320 327 332 326 316 315 325 339 341 340 342 342 341 340 343 343 346 351 352 352 354
302 301 301 302 302 303 307 308 310 314 312 308 308 309 308 309 310 311 318 321 320 319 322 319 318 317 318 319 317 317 318 320 322 322 325 325 323 322 321 322 324 324 327 326 319 323 328 326 327 329 328 327 326 326 329 331 326 325 329 329 328 328 327 328 324 318 320 319 315 320 324 317 312 323 338 341 337 339 343 340 339 343 342 345 351 353 354 354
302 301 301 303 303 304 308 310 312 313 310 308 308 309 309 309 311 313 318 322 320 317 321 318 318 319 319 320 318 317 319 321 322 322 324 326 324 323 321 321 322 323 325 325 322 326 328 327 327 327 327 327 327 329 329 329 328 328 328 328 328 328 327 327 323 318 317 315 310 314 318 315 312 319 329 333 332 336 342 340 339 342 342 345 349 350 351 352
302 301 301 303 306 307 309 311 312 311 308 309 308 308 309 310 311 314 319 323 317 315 321 318 319 320 320 321 318 318 318 319 323 324 323 325 325 323 322 322 322 322 325 326 325 327 328 328 328 327 327 328 328 328 328 328 329 327 327 327 325 326 326 325 322 316 312 311 311 313 316 315 313 316 323 329 332 337 340 338 339 341 342 343 345 349 349 349
302 301 302 305 307 308 310 312 311 309 308 309 308 309 310 311 311 312 318 321 313 317 323 321 320 321 321 321 319 319 319 318 321 323 324 325 324 324 323 322 321 320 322 324 325 327 328 328 328 327 327 328 329 328 327 329 327 326 327 324 318 317 318 316 315 314 311 309 311 314 317 315 311 315 325 333 336 339 339 339 339 339 341 344 344 347 350 349
302 302 303 307 308 309 312 313 310 308 308 308 308 309 309 310 310 311 314 314 312 318 320 319 319 318 320 321 321 321 320 320 320 322 325 324 324 326 324 322 321 317 315 317 321 323 326 328 329 328 328 328 329 326 325 327 327 327 325 319 313 310 311 310 310 311 309 309 312 315 316 313 311 318 328 333 335 336 337 338 340 338 340 343 344 345 349 350
303 304 307 309 310 312 313 311 308 307 308 308 308 309 309 309 310 310 311 311 312 316 316 315 315 316 319 320 322 323 322 322 321 321 325 325 325 326 324 325 324 320 316 317 317 315 319 326 328 329 328 328 329 324 320 320 324 325 319 314 311 309 310 312 312 312 312 310 313 316 315 311 311 320 330 332 331 335 337 337 338 339 342 344 347 345 345 349
305 308 311 311 312 313 311 308 307 307 307 308 308 309 310 310 310 309 309 311 313 314 314 313 314 315 318 320 322 322 322 322 322 322 324 325 324 324 325 325 324 324 322 318 316 314 313 318 324 327 327 328 330 327 324 324 324 325 325 320 313 310 311 313 312 312 313 311 311 315 314 309 309 319 330 330 330 333 335 336 338 340 343 344 346 346 343 345
307 311 313 313 313 313 310 307 307 307 307 308 307 308 310 309 309 308 309 310 311 312 311 311 313 314 317 320 322 322 321 322 323 322 323 324 323 324 325 326 324 326 323 316 316 317 312 314 324 328 328 330 329 328 330 328 322 324 329 321 313 314 316 312 312 312 311 310 311 311 312 314 318 326 331 330 329 331 331 333 337 339 343 344 345 347 344 343
309 313 314 314 312 310 309 307 306 307 307 307 307 308 309 309 308 308 310 310 310 310 309 311 313 313 315 318 319 322 322 322 323 323 322 324 324 324 326 326 325 325 324 319 319 318 312 315 327 329 327 331 329 328 331 326 321 322 320 315 318 324 321 312 310 312 310 309 311 310 310 315 320 324 329 330 329 330 331 331 332 335 341 344 344 347 345 342
310 313 314 314 312 309 308 307 307 308 308 308 308 308 309 309 309 309 309 309 308 309 309 310 312 313 313 315 317 319 319 320 323 321 319 322 322 324 326 326 326 326 326 323 322 324 318 315 326 329 326 329 329 328 330 329 326 321 315 317 323 325 323 316 312 312 312 311 311 310 309 312 312 316 326 330 330 330 330 330 332 333 338 341 342 345 346 342
311 313 315 314 311 308 307 307 308 309 309 309 310 310 309 308 308 308 308 307 307 308 309 309 311 312 312 313 313 316 315 316 321 320 319 320 320 323 326 326 326 326 327 326 323 327 324 314 321 330 327 328 330 328 326 328 329 325 321 324 322 315 314 315 312 312 312 312 312 311 310 311 310 314 323 327 329 330 331 332 332 331 334 337 338 343 347 345
312 314 313 311 309 308 307 308 309 309 309 310 310 309 308 307 307 307 307 307 307 308 308 308 309 310 311 311 311 313 313 313 318 318 318 319 320 322 325 325 327 327 326 328 326 327 328 317 315 327 330 327 329 326 320 321 327 328 326 327 324 317 314 314 313 312 312 312 313 312 311 311 315 322 327 329 331 331 331 333 333 330 332 337 337 341 347 346
313 312 310 309 309 308 307 309 310 309 308 309 309 308 307 306 307 307 307 307 307 307 308 308 309 309 309 310 310 312 313 314 316 316 317 321 321 321 323 322 324 327 325 327 327 326 329 322 313 323 329 324 322 325 323 322 324 322 319 319 319 319 318 317 315 313 312 312 312 313 312 311 320 331 332 332 334 332 331 334 334 332 332 334 336 340 345 346
312 311 310 309 309 307 308 309 309 308 308 308 309 308 307 307 307 307 307 307 307 307 308 308 309 309 309 311 311 312 314 314 315 316 316 319 321 319 321 320 321 324 325 327 329 325 326 323 315 316 319 316 319 328 329 328 327 323 320 318 319 318 316 314 313 313 312 311 311 313 311 312 324 334 333 333 335 332 332 333 332 332 332 333 336 338 346 348
311 310 310 309 309 308 308 309 308 307 308 308 308 307 307 308 307 307 307 307 307 307 308 309 309 309 309 311 312 312 313 313 314 317 316 317 320 320 319 320 319 322 325 327 329 328 328 326 318 314 317 321 326 330 328 328 330 327 324 325 326 322 314 310 310 311 311 311 311 311 310 315 329 336 332 333 335 332 332 333 332 331 331 333 333 334 344 347
310 309 311 309 308 308 308 309 308 307 307 307 307 307 307 308 307 307 308 307 307 307 308 308 308 309 309 310 311 311 312 314 313 316 316 316 319 319 319 320 319 321 325 326 328 329 329 326 318 315 321 326 327 328 328 329 329 325 324 326 327 324 320 317 316 316 313 310 310 310 309 315 330 337 333 333 334 332 332 332 331 332 331 334 335 335 345 350
309 310 311 309 308 308 308 308 307 308 307 307 308 307 307 307 307 307 307 307 307 307 308 308 307 308 309 309 310 310 311 314 314 314 316 317 317 318 319 319 319 320 321 323 327 327 326 327 320 315 318 322 320 321 323 325 326 325 325 327 326 326 327 323 321 320 315 311 311 311 309 314 328 337 333 331 332 332 332 331 330 332 332 332 334 337 348 354
310 310 309 309 308 308 308 308 307 307 307 307 308 307 306 307 307 307 307 307 307 307 307 308 307 308 309 308 309 310 310 312 314 315 317 318 317 318 318 318 320 319 320 326 328 325 326 330 324 317 318 318 314 314 316 319 323 325 326 327 326 327 325 322 318 314 313 315 316 311 309 316 331 337 332 330 331 330 332 331 331 332 332 336 343 348 354 357
310 309 308 309 308 307 307 307 306 307 307 307 308 307 307 307 307 306 307 307 307 307 307 307 307 308 309 309 309 310 310 311 313 315 316 317 316 316 316 316 318 319 326 333 331 325 327 331 329 324 321 319 318 320 325 325 321 318 321 323 324 326 327 323 316 311 315 317 314 317 319 319 326 334 334 332 330 330 333 330 331 336 339 345 356 358 357 358
309 308 307 307 307 307 307 307 306 307 307 307 307 308 308 308 307 307 307 307 307 307 308 307 308 308 309 309 309 310 310 311 313 314 314 315 314 314 314 314 316 321 328 330 326 324 327 326 329 330 326 327 331 332 332 330 322 318 320 322 323 326 326 322 315 316 323 317 311 327 336 322 323 334 336 332 332 333 333 330 333 339 340 342 351 355 351 349
308 308 307 307 307 307 307 306 307 306 307 307 308 308 308 307 307 307 307 307 307 308 309 309 308 308 308 308 308 310 311 312 313 313 313 314 313 313 314 314 316 318 321 321 320 324 326 324 327 328 326 329 335 333 333 333 328 326 324 322 323 325 323 320 318 322 328 318 315 332 339 326 328 333 330 331 333 333 333 332 331 336 338 340 345 346 343 341
307 308 307 307 307 307 307 306 306 306 307 308 308 308 308 307 307 307 307 307 307 308 309 309 309 308 308 308 308 310 311 311 312 312 312 312 312 313 314 315 315 315 314 317 322 324 324 325 330 328 325 326 330 331 333 331 329 328 327 325 325 326 324 322 324 326 329 325 325 334 335 331 333 333 329 331 333 331 332 333 334 335 338 340 339 337 338 341
307 307 308 308 307 308 307 306 306 306 307 308 308 308 308 307 307 307 307 307 307 308 308 308 308 308 307 308 308 309 310 310 311 311 311 311 311 313 314 313 313 313 313 316 322 323 323 326 331 329 324 323 327 331 331 331 329 326 326 328 326 326 324 323 325 326 327 326 328 331 333 333 334 334 333 334 334 333 333 335 336 337 337 337 334 333 337 340
306 307 308 308 307 308 308 307 307 307 306 307 308 308 308 308 307 307 307 307 307 307 307 307 308 307 307 308 308 309 309 308 309 310 310 311 311 311 312 312 312 312 313 316 319 321 323 325 328 328 322 321 326 328 328 329 328 323 323 326 324 322 323 323 326 327 325 325 326 324 324 330 335 334 334 334 335 335 335 335 334 335 336 334 331 333 338 340
306 306 307 307 307 309 308 308 307 306 306 307 307 308 307 307 308 307 307 307 307 307 307 307 307 307 307 308 308 308 308 308 309 309 309 309 309 309 310 310 311 311 313 315 316 319 321 322 324 324 321 320 324 327 326 325 323 320 321 326 327 326 327 325 327 329 329 328 325 321 324 334 340 337 334 334 335 334 335 334 334 338 340 336 332 332 334 336
Wind_Speed
24 24 25 25 26 28 29 30 30 30 29 29 28 28 28 28 28 27 26 24 23 23 22 22 20 20 19 18 17 18 18 18 19 15 20 28 25 17 15 16 13 17 21 14 15 15 15 18 18 19 15 12 10 8 10 9 7 6 4 4 4 3 4 6 7 6 7 10 2 7 6 5 6 9 8 9 12 11 12 11 9 11 15 19 24 30 32 30
25 26 27 28 29 31 31 32 32 31 31 30 29 29 30 30 29 27 25 24 23 22 22 22 21 21 19 17 16 15 16 18 20 20 31 36 27 20 17 20 20 17 19 18 18 18 16 15 16 17 13 9 9 9 10 8 8 7 3 2 4 4 5 7 8 8 10 13 8 4 7 4 3 7 8 8 11 12 12 12 13 15 19 22 27 30 31 30
27 28 29 30 31 32 33 33 33 33 32 30 30 32 32 32 30 27 24 23 23 22 22 23 22 21 20 16 14 12 13 18 17 22 36 36 29 28 24 21 23 19 19 21 20 20 17 15 16 15 12 9 9 10 10 8 8 7 5 4 5 5 5 7 11 13 12 14 13 6 9 3 3 5 6 8 11 12 10 12 14 16 20 22 24 27 30 29
29 30 31 32 33 34 34 34 34 34 33 31 33 34 33 32 30 26 24 24 24 24 23 23 22 21 19 15 11 8 11 15 12 14 21 25 25 27 29 26 22 20 21 22 20 20 18 16 16 15 12 10 10 11 10 9 7 7 8 5 5 6 3 7 11 14 16 19 12 5 8 3 4 5 5 8 9 9 9 12 14 17 21 22 22 24 26 26
30 31 32 33 34 35 35 36 36 35 34 34 35 34 34 34 30 25 25 25 25 25 24 23 22 20 18 12 6 6 9 8 1 4 5 11 19 22 29 31 25 20 21 22 20 20 20 17 15 14 12 10 10 10 11 12 8 7 9 5 9 8 3 6 7 10 20 20 5 7 6 1 4 6 5 7 7 5 7 11 16 19 21 22 22 22 22 22
32 33 34 35 36 37 37 38 38 36 36 36 35 35 34 33 28 25 26 26 26 26 24 22 20 18 15 8 3 6 9 4 6 9 7 1 7 17 28 31 27 22 22 22 21 20 18 17 15 13 11 10 13 12 11 12 11 8 9 7 13 9 5 6 8 12 21 15 2 5 3 4 5 7 6 6 7 7 9 13 17 19 21 22 22 21 22 22
33 35 35 36 37 39 39 40 39 38 38 37 35 35 34 32 27 26 27 27 27 26 23 20 17 15 10 4 3 7 9 11 10 1 3 6 6 9 23 27 26 23 22 22 20 19 17 17 16 13 12 11 13 14 12 12 13 11 10 8 13 11 7 8 11 11 17 11 2 7 10 9 8 7 5 6 9 10 11 15 19 19 21 22 21 21 22 22
35 36 37 38 39 40 41 41 41 40 40 38 36 35 33 30 26 27 28 27 26 23 19 15 13 10 4 3 6 8 10 20 25 13 7 7 2 7 15 22 23 23 24 23 20 19 16 17 17 13 12 12 12 14 14 13 13 13 12 10 10 11 9 13 15 9 12 11 5 6 9 10 8 6 4 8 12 14 14 17 20 19 20 20 19 21 20 20
36 37 38 39 40 41 42 42 43 42 41 39 36 34 32 29 27 28 28 26 22 19 16 12 11 6 5 5 7 9 13 21 25 19 13 11 8 9 14 17 21 24 23 24 23 20 16 15 17 15 13 13 14 14 15 13 10 12 14 13 12 11 14 16 14 9 12 10 7 7 7 7 11 10 7 9 12 16 17 17 19 18 19 19 18 19 19 19
37 38 38 39 40 42 43 43 44 43 42 39 35 32 31 29 28 28 27 23 18 16 14 11 8 4 8 8 8 9 11 16 16 19 17 13 14 14 16 16 20 24 22 22 23 21 17 14 16 15 13 13 14 14 16 13 10 12 13 13 15 13 13 14 12 12 13 11 10 9 8 6 11 11 7 8 10 16 19 17 18 18 19 19 18 18 18 19
38 38 39 39 41 42 43 43 44 43 42 37 34 32 30 29 28 27 24 18 14 14 13 10 7 8 11 10 10 10 8 9 7 18 19 16 19 18 18 16 20 24 21 20 22 22 20 17 15 11 10 11 13 15 15 15 12 12 12 10 13 15 12 12 12 13 11 10 11 10 10 7 9 9 7 12 11 14 19 17 18 17 17 18 17 17 16 15
38 39 39 40 41 42 43 43 43 43 40 35 33 31 29 28 27 26 21 14 12 14 13 9 7 10 12 10 13 18 14 9 4 13 16 16 19 18 18 17 19 23 22 18 19 22 22 20 17 13 10 10 12 13 12 15 16 14 13 11 12 14 14 14 13 13 11 10 10 10 10 7 8 8 11 16 14 14 18 17 17 15 15 16 16 15 14 14
39 39 39 40 41 42 43 42 43 42 37 34 32 31 28 27 27 25 18 12 11 14 12 7 7 11 10 9 15 26 25 18 11 9 11 14 18 18 18 18 19 20 22 20 18 21 22 20 19 17 13 12 11 10 10 11 13 13 13 10 10 11 12 14 13 13 13 11 10 9 7 7 10 10 12 13 13 15 15 14 15 13 13 14 14 14 14 15
39 39 40 40 41 42 43 42 43 40 35 33 32 30 28 27 27 23 15 11 11 12 10 5 9 11 10 10 16 24 24 22 21 17 13 13 17 19 20 20 20 20 21 21 20 19 20 21 20 16 13 14 12 12 13 10 8 11 12 10 9 9 8 12 13 14 14 11 12 11 7 6 10 13 15 10 9 18 15 12 12 11 12 12 13 14 15 15
39 40 40 41 41 42 42 43 42 37 34 33 31 30 28 27 26 19 12 9 8 10 5 5 10 9 7 12 19 20 18 20 22 23 20 16 16 17 21 22 21 22 21 20 20 18 19 20 17 13 12 14 15 14 13 10 9 9 10 10 10 9 9 13 16 17 16 11 14 14 8 6 9 12 17 15 14 21 18 12 11 11 13 12 12 14 14 13
40 40 40 41 42 42 42 42 41 35 33 33 31 29 28 26 22 15 10 8 7 6 2 6 13 12 7 8 10 9 15 20 21 23 23 21 19 16 19 22 20 21 21 20 20 18 18 17 13 12 12 13 14 12 10 10 10 9 10 10 11 11 9 11 14 17 18 13 15 16 9 7 6 7 15 18 17 21 18 15 16 15 14 12 12 12 13 13
40 40 40 41 42 43 42 41 39 33 32 32 30 31 29 21 17 14 9 8 8 5 7 8 10 11 9 10 9 7 15 20 20 21 23 24 21 19 18 18 17 19 20 19 19 17 15 13 10 11 12 11 11 11 10 11 10 9 10 10 11 13 11 10 11 14 18 16 15 15 12 9 6 7 10 11 15 18 16 16 16 15 14 13 12 12 13 13
40 40 39 40 41 42 42 41 37 30 31 32 30 33 28 15 12 12 7 6 6 7 11 12 9 7 8 10 13 13 12 17 22 20 22 24 23 22 19 15 15 17 17 15 16 15 12 11 10 10 11 12 12 12 12 13 12 10 10 10 10 13 13 13 12 11 16 17 15 15 14 13 11 10 10 10 12 16 17 16 14 14 15 14 13 13 13 14
41 40 40 40 41 42 41 41 34 28 31 30 29 30 19 7 6 7 6 6 5 6 7 6 10 7 7 9 15 16 11 11 20 19 20 24 23 22 19 15 15 16 15 11 14 16 11 9 11 12 12 14 16 16 16 15 15 14 13 12 11 12 13 14 14 11 15 15 15 15 14 15 15 13 13 13 13 16 18 17 14 14 14 14 13 13 14 15
41 41 41 41 42 42 41 40 32 27 29 32 33 26 10 7 6 2 3 7 9 12 16 12 12 15 17 18 13 11 9 8 15 17 21 24 21 20 17 15 15 14 14 13 14 15 12 10 13 15 15 18 20 21 20 18 18 17 15 14 14 13 12 14 15 11 13 11 13 16 16 16 16 15 15 13 14 16 16 16 17 16 14 15 16 15 16 16
40 40 40 41 42 41 41 39 30 24 26 30 30 16 8 13 10 7 10 14 16 16 22 23 19 21 23 23 21 13 7 7 13 16 21 24 21 18 15 15 16 13 15 17 13 12 12 13 17 19 19 20 20 21 21 19 20 19 16 13 13 13 12 14 16 12 14 10 11 15 16 16 17 15 15 15 15 16 15 15 19 19 15 15 17 17 17 15
40 40 40 41 41 39 39 36 27 22 22 23 19 9 10 14 11 13 14 14 18 18 21 25 24 23 24 27 31 25 14 11 15 16 19 23 20 16 15 16 16 14 16 17 12 11 13 16 20 21 19 20 20 20 22 22 21 17 15 13 11 12 11 13 16 15 14 9 9 14 15 15 16 15 14 16 16 14 14 14 16 20 18 16 18 17 16 16
40 41 41 40 42 39 36 33 24 19 19 17 12 12 14 17 16 17 14 11 18 20 18 22 23 22 23 24 27 25 17 14 15 16 21 22 18 16 16 17 17 16 17 18 15 13 13 16 20 20 18 21 21 21 22 21 17 14 13 13 11 12 12 10 14 18 15 12 11 13 12 12 14 15 15 15 16 14 14 15 14 16 19 19 20 18 17 18
41 42 42 41 43 40 35 30 20 16 19 16 12 16 18 19 18 19 14 10 15 17 18 24 21 19 23 22 21 22 17 15 15 16 22 22 17 16 16 17 18 17 16 21 22 18 16 14 16 20 21 22 22 21 21 16 13 15 16 15 13 14 15 11 11 14 13 14 14 12 10 9 12 14 15 14 16 16 15 16 16 13 17 20 19 18 18 19
43 42 42 41 41 40 36 24 14 19 23 15 14 19 21 19 18 18 13 8 10 13 18 21 15 17 25 23 20 18 15 16 16 15 20 23 20 15 14 14 14 16 19 23 23 19 18 16 16 21 22 23 22 19 20 17 12 14 18 19 18 17 16 16 14 12 10 12 15 14 9 7 11 15 15 13 14 16 14 15 17 14 16 19 18 18 18 18
43 41 42 39 37 40 30 13 14 24 21 12 17 21 21 19 18 17 10 6 9 9 12 13 9 13 21 19 16 16 15 16 16 17 19 24 23 15 13 11 10 16 20 19 16 11 14 18 17 19 21 23 22 18 20 20 12 11 15 20 22 20 18 18 17 12 9 9 13 16 11 7 11 15 15 15 16 18 16 16 17 15 16 17 16 17 16 18
42 40 40 37 34 34 21 10 19 23 13 13 21 23 22 19 19 16 8 5 7 3 7 9 7 8 14 17 18 17 12 9 14 20 20 24 24 17 15 15 11 14 15 12 11 10 14 21 20 20 20 20 18 16 18 20 14 10 13 17 21 21 20 18 17 13 9 9 10 16 14 9 8 11 14 18 19 18 17 18 18 16 17 17 18 18 17 18
42 40 38 35 32 25 14 14 19 16 12 18 23 23 22 21 19 13 5 5 4 3 6 3 3 3 7 14 21 18 10 8 14 19 21 26 26 18 17 20 17 17 17 14 12 12 16 22 22 21 19 15 15 16 18 20 16 12 13 15 16 20 21 19 15 12 10 10 10 13 16 10 8 9 13 18 20 18 19 20 17 15 18 18 19 21 20 19
42 40 35 34 29 18 11 14 14 13 18 22 23 23 24 22 15 7 4 6 6 3 2 1 1 4 6 10 20 19 13 9 10 15 20 25 26 19 15 19 20 18 21 20 15 13 14 18 21 20 16 13 15 18 19 19 16 13 15 15 13 16 18 17 14 11 11 11 11 14 15 10 7 9 11 14 16 17 18 17 14 14 17 18 18 21 21 18
42 39 33 31 26 17 14 13 12 15 21 22 23 26 25 17 8 5 6 6 5 6 1 2 3 2 7 10 15 17 18 15 8 13 19 19 24 22 14 15 19 16 17 20 19 16 15 16 18 17 15 13 15 17 19 19 17 15 15 14 12 11 11 12 12 10 10 11 13 17 18 11 8 8 9 10 12 15 16 13 15 17 18 17 16 20 21 18
43 38 29 25 20 15 14 12 13 19 21 21 25 25 18 9 4 7 7 5 7 9 7 6 10 8 5 9 12 15 18 17 12 12 17 16 20 20 14 13 15 13 13 16 17 19 19 16 14 14 17 16 15 15 17 19 19 15 12 11 9 8 8 9 9 10 11 11 12 17 19 14 11 9 9 11 12 15 14 12 17 20 19 17 16 18 19 18
42 35 23 17 16 14 11 11 17 21 20 22 22 16 9 6 6 9 7 7 7 8 12 14 17 18 15 12 11 16 16 14 16 15 15 16 16 16 17 14 11 13 14 13 14 16 17 18 15 15 18 19 16 13 13 16 16 14 11 11 10 8 8 8 8 9 10 9 10 16 18 16 12 9 12 14 12 14 15 15 16 17 20 17 16 16 15 17
41 31 18 13 13 12 11 12 18 20 20 21 16 8 6 7 7 8 10 10 5 11 15 16 20 21 18 15 11 14 15 14 17 17 15 17 16 16 21 21 18 16 13 12 14 13 13 17 20 18 16 18 18 13 11 12 14 14 12 11 10 9 8 9 8 8 9 9 11 15 15 14 12 10 15 18 14 13 16 18 17 15 18 18 17 17 15 18
38 25 16 16 15 14 12 13 17 19 20 17 10 7 8 9 8 10 13 11 9 15 16 18 22 22 17 13 10 11 12 13 17 18 15 17 16 14 18 23 25 19 11 11 12 12 13 14 19 20 13 17 21 16 13 13 13 14 13 11 11 9 8 8 8 8 9 8 12 15 13 11 10 8 13 19 17 15 14 14 16 15 16 17 17 18 18 19
33 20 18 19 14 12 11 15 17 17 16 11 6 7 9 7 8 10 8 8 11 14 18 20 19 18 15 12 11 13 11 9 16 17 14 14 14 14 15 18 24 21 13 12 10 12 16 12 16 21 16 18 22 18 16 15 13 12 13 12 12 10 9 7 8 10 10 8 9 12 10 9 8 8 12 16 18 20 17 14 15 15 17 19 17 19 19 18
31 20 18 15 8 7 12 16 16 15 12 8 6 6 7 7 7 6 9 14 14 14 19 18 12 12 12 9 9 11 10 9 14 14 11 14 16 17 17 15 21 24 17 12 8 9 14 12 15 22 21 21 21 19 19 15 10 10 12 13 12 12 11 7 8 11 11 9 8 8 9 9 9 10 12 13 14 17 19 18 17 15 17 21 18 19 20 18
29 21 17 13 9 10 14 16 15 13 9 5 5 7 8 11 13 13 14 17 18 17 15 11 8 9 10 9 9 9 11 12 12 12 11 14 13 17 19 15 20 25 22 17 11 9 11 10 15 22 23 22 19 20 22 19 12 9 11 13 11 12 12 7 6 8 9 9 7 9 13 11 9 8 10 14 15 14 16 19 19 16 15 20 19 19 21 19
27 22 16 11 9 13 15 15 13 11 6 4 5 6 7 11 14 16 15 16 18 16 13 9 7 9 11 11 12 16 19 15 12 12 12 13 10 16 20 16 18 25 28 23 13 10 11 9 12 21 24 20 18 18 18 19 20 14 11 13 11 10 11 8 7 7 8 8 6 9 12 10 9 9 10 14 16 15 15 16 18 19 16 16 18 20 22 20
24 17 7 4 10 14 15 15 13 8 4 4 5 4 4 7 11 13 14 15 14 12 12 11 10 11 12 13 14 16 16 13 14 14 10 9 7 6 3 5 9 17 26 28 17 11 11 9 9 18 23 20 15 14 14 15 19 17 12 13 11 9 9 9 8 7 7 7 6 8 9 7 7 8 11 14 15 15 15 13 15 19 17 14 14 16 21 19
16 10 3 12 14 16 18 17 11 5 3 4 5 5 6 6 8 10 12 13 11 8 10 13 14 13 13 15 16 14 15 15 15 14 10 6 5 8 14 13 10 10 10 18 19 15 11 9 8 13 21 20 13 13 16 16 16 15 13 12 11 9 8 9 9 8 7 6 5 6 6 7 8 8 12 14 13 15 14 12 11 15 17 15 13 13 18 18
13 7 6 13 15 17 19 13 5 2 5 5 5 7 8 7 7 8 9 11 9 6 9 12 13 13 12 13 13 13 13 14 15 14 11 9 9 8 13 16 14 13 11 9 14 16 10 9 11 10 13 17 15 17 20 20 19 16 12 12 12 11 10 9 9 9 9 7 5 5 5 3 2 4 9 11 11 13 13 12 11 14 17 16 14 14 16 17
10 5 11 12 12 16 15 7 3 3 4 5 6 8 8 6 8 8 7 9 8 7 8 9 12 13 11 10 11 13 12 11 14 14 12 13 13 9 13 19 18 14 10 8 8 14 11 8 11 11 11 15 19 21 21 22 22 19 16 13 12 12 12 10 8 8 9 9 8 7 6 1 4 3 3 7 10 12 12 11 10 12 15 16 18 17 16 18
6 9 15 12 14 15 11 5 5 4 4 7 8 10 9 7 8 8 7 8 8 7 7 8 11 12 10 10 10 12 13 11 12 13 13 14 14 14 17 18 18 16 10 6 5 8 9 8 9 10 11 13 19 20 20 21 20 17 16 16 13 13 13 11 8 7 8 10 9 7 6 3 5 3 1 4 5 10 12 11 12 12 12 12 17 16 14 18
7 11 12 13 17 14 8 5 7 6 6 9 10 10 10 7 8 9 9 10 8 8 8 8 10 11 11 11 10 11 12 9 10 13 14 13 14 19 22 19 16 14 9 7 7 4 4 7 10 10 8 9 15 16 15 18 17 13 13 17 18 18 18 14 10 8 7 10 11 8 6 4 6 5 4 5 2 7 11 11 12 13 10 10 13 13 13 18
9 8 7 11 15 10 5 5 7 7 8 11 11 12 10 7 8 10 11 11 9 8 9 9 12 12 12 12 11 10 10 9 10 13 13 13 16 19 21 25 21 13 9 12 12 8 5 6 8 9 9 11 13 13 12 14 13 11 15 21 23 23 21 15 9 8 7 8 11 9 6 5 9 8 6 6 7 8 11 10 10 12 8 7 8 9 10 15
8 7 7 8 9 7 4 5 7 8 9 10 10 10 11 9 7 8 10 10 9 9 9 10 12 13 12 13 12 11 10 10 9 10 11 12 13 15 21 29 25 16 16 16 14 9 5 7 9 10 12 9 6 6 9 14 15 16 19 23 25 25 22 16 10 8 7 7 9 8 5 8 12 9 7 9 7 5 11 13 11 10 9 7 8 9 9 10
6 7 8 8 8 7 6 6 8 8 10 10 8 8 11 11 8 7 7 7 8 9 8 8 8 10 12 13 13 11 10 11 10 10 12 12 12 17 24 26 22 22 25 17 12 7 5 8 11 15 16 12 4 4 1 8 14 20 23 22 24 26 24 19 13 10 8 7 8 8 8 10 12 10 9 10 7 2 6 12 11 11 13 11 11 11 12 12
6 6 8 10 8 8 8 10 11 12 13 12 8 8 11 11 10 9 6 6 8 7 5 7 8 9 13 14 12 11 10 10 9 9 11 11 13 16 19 21 21 23 26 17 9 5 5 7 11 16 18 16 13 7 5 7 6 13 22 24 23 26 27 22 17 14 11 7 7 7 8 7 9 11 10 10 10 5 6 10 10 10 11 10 10 10 12 12
6 6 7 9 9 9 13 14 14 14 14 11 8 8 9 10 10 10 8 8 9 6 4 8 11 12 15 14 11 10 9 8 7 7 8 11 13 12 12 15 18 21 24 17 7 6 3 6 9 14 17 16 16 15 10 6 9 10 15 23 23 23 26 24 19 18 15 10 9 9 7 4 7 11 9 8 10 9 8 9 10 11 10 7 6 7 12 13
6 5 5 7 8 10 12 13 12 11 10 9 8 6 7 10 11 10 9 9 9 9 7 9 12 14 16 16 12 10 9 9 8 8 8 9 10 9 8 9 12 19 23 15 8 8 5 5 7 9 12 14 15 16 13 9 10 14 15 21 25 22 24 25 20 19 16 12 13 12 10 7 6 10 11 9 8 7 6 7 8 9 10 10 9 9 12 16
9 10 8 6 7 8 9 10 10 9 8 7 6 5 7 10 11 11 10 6 4 8 10 10 13 14 14 16 15 12 9 8 8 10 10 9 9 8 7 9 13 17 18 14 11 10 7 6 6 6 7 10 11 15 16 12 11 15 16 16 23 20 19 20 18 17 15 13 14 13 10 8 7 10 13 10 7 6 6 6 5 4 6 6 6 5 7 13
10 10 9 6 6 7 7 9 10 9 8 6 7 9 11 11 11 11 9 4 3 9 10 9 10 10 11 14 16 14 12 10 10 11 9 8 10 10 9 14 18 16 13 13 11 9 9 8 6 5 7 9 11 15 15 10 8 11 11 11 15 17 17 18 18 19 18 15 12 9 8 7 7 8 11 12 9 6 3 2 3 6 7 4 3 5 4 2
Wind_Direction
360 357 356 357 358 359 358 357 356 353 351 349 346 345 343 341 338 334 330 325 323 320 318 318 314 312 310 310 310 307 314 307 294 273 241 251 249 242 253 254 260 230 211 202 209 206 197 207 212 211 217 220 223 232 235 233 228 237 237 246 276 262 279 304 319 340 299 291 260 142 121 119 124 125 136 126 119 122 123 110 94 110 124 130 134 140 145 147
358 357 358 359 359 359 358 356 354 352 350 348 346 344 343 340 337 333 329 326 323 321 319 316 312 311 309 311 310 311 319 299 282 267 253 257 252 244 247 238 245 235 202 203 213 209 203 205 207 210 215 221 223 220 230 228 216 232 223 209 259 251 285 308 315 306 281 298 300 157 107 91 135 126 142 141 124 125 122 108 98 103 113 124 135 142 146 149
359 358 359 359 359 359 357 355 353 351 348 345 343 342 341 340 337 332 329 327 324 320 316 312 310 308 307 308 310 318 314 296 279 263 261 263 253 242 239 231 234 233 208 205 213 212 212 211 205 208 215 221 224 219 222 219 209 223 222 206 216 225 292 298 291 290 277 290 287 182 126 139 172 136 154 154 133 131 128 119 116 118 124 133 140 144 148 153
359 358 359 359 358 358 356 354 352 350 347 344 342 341 340 339 337 331 327 326 323 319 313 310 309 305 306 305 306 321 304 289 273 262 266 257 248 235 228 226 222 221 213 209 217 217 217 217 210 208 214 222 226 224 225 221 209 213 228 222 172 183 258 276 280 294 283 271 261 151 118 163 176 145 156 161 142 129 137 134 131 133 135 140 143 147 151 156
358 358 359 358 358 356 355 354 351 349 347 344 342 340 339 338 335 331 328 325 322 318 313 309 306 302 304 298 296 315 289 281 289 23 338 236 232 227 220 219 212 206 206 211 221 221 218 219 214 211 215 226 226 224 227 220 212 220 241 215 140 153 213 257 265 283 277 267 269 68 75 222 185 142 132 144 131 122 154 139 133 140 142 146 149 150 154 159
358 358 358 358 357 355 354 353 351 349 347 343 341 339 337 336 333 330 327 324 321 316 312 307 303 301 299 287 273 277 260 263 60 61 43 69 202 214 213 211 208 202 203 213 221 219 216 216 214 212 214 226 229 227 225 216 214 226 248 200 155 167 194 228 232 233 253 256 86 87 145 234 212 143 118 123 123 141 162 139 132 141 145 148 151 154 158 162
358 358 357 357 356 354 353 351 350 349 346 343 340 338 336 334 331 329 327 325 321 315 311 306 301 301 296 274 238 249 244 257 275 343 39 13 74 184 207 206 203 201 205 214 220 217 211 212 213 212 214 223 230 233 228 219 221 225 247 221 175 184 194 230 239 224 245 253 175 172 164 199 215 140 130 155 140 144 147 134 134 141 147 150 153 159 162 163
358 357 356 356 354 353 351 350 349 348 346 343 339 337 335 333 330 327 327 325 320 315 311 304 300 300 267 235 239 239 234 245 255 249 252 272 93 139 186 197 199 199 209 213 218 217 208 212 213 211 216 223 229 233 229 221 227 226 236 243 202 177 181 233 243 222 246 261 257 220 175 192 178 120 192 176 134 130 126 124 131 140 148 153 158 163 163 164
357 356 355 354 353 352 350 349 348 347 345 342 339 337 333 331 328 324 325 324 318 314 312 302 298 283 202 222 246 250 246 247 249 234 227 226 198 167 166 184 197 199 209 213 218 219 210 214 213 214 221 227 232 237 235 223 227 228 222 235 233 192 182 218 234 223 237 247 255 240 216 203 144 137 197 173 136 131 128 128 134 144 153 156 162 164 163 166
356 355 354 352 352 350 349 347 346 346 345 342 338 336 332 330 325 323 324 322 315 312 311 299 289 230 197 220 236 249 257 264 247 206 201 192 175 173 173 184 192 197 209 213 219 219 214 219 214 218 229 235 240 241 241 231 228 237 229 229 240 234 205 207 220 226 234 239 247 239 229 210 159 170 183 161 158 137 136 145 145 151 158 158 164 166 166 169
356 355 352 351 350 349 347 345 345 344 343 341 337 334 330 328 324 323 324 319 311 309 311 298 269 204 208 224 231 238 246 273 226 177 188 185 171 176 187 194 188 195 210 213 220 220 217 222 219 221 226 235 246 246 247 245 244 243 241 241 245 255 244 223 221 223 233 237 238 242 243 219 187 205 149 150 181 148 143 153 151 156 158 158 165 166 168 172
355 354 352 350 348 348 345 344 344 343 342 339 335 332 329 328 325 323 321 315 309 306 309 296 244 200 216 236 234 234 240 270 224 177 197 192 182 188 196 199 192 197 208 214 221 220 219 224 225 228 224 228 242 247 247 244 249 243 235 242 240 248 248 236 229 220 223 229 227 237 249 231 213 214 131 148 185 156 146 153 153 157 154 159 166 163 169 176
355 353 351 348 347 346 345 344 343 341 341 337 334 332 329 329 326 322 317 310 309 307 306 285 215 203 226 246 237 238 247 263 258 222 221 206 200 203 201 204 203 202 209 218 224 221 221 225 229 235 234 236 238 247 257 246 251 247 234 238 238 238 238 233 231 225 223 228 224 222 238 228 221 211 146 156 181 139 139 161 155 158 158 163 167 161 171 179
353 352 350 348 346 345 344 343 342 341 339 335 333 331 329 330 323 316 312 303 306 308 298 233 190 200 228 252 257 249 246 256 256 241 228 219 216 209 203 207 211 210 212 221 227 223 222 224 231 239 238 243 247 250 258 254 251 248 234 232 239 241 238 230 226 225 223 223 220 220 235 224 222 208 155 150 165 131 144 174 156 161 162 162 167 164 172 178
352 351 350 348 345 344 344 343 342 341 338 334 332 329 329 328 318 310 307 301 306 307 286 184 193 210 250 258 265 261 240 242 245 232 222 220 220 211 202 205 212 214 212 220 227 226 221 221 226 235 235 239 248 252 250 244 233 233 233 225 226 233 242 235 220 213 215 215 214 221 236 221 232 212 159 157 167 141 151 172 161 176 168 163 173 166 172 177
351 350 349 347 344 343 343 343 341 340 337 333 331 329 329 325 312 301 305 293 293 299 183 173 200 214 269 273 263 248 218 223 227 220 220 219 219 215 203 202 209 211 211 217 225 229 223 219 222 229 235 232 234 242 246 246 230 218 229 228 223 223 232 238 222 206 206 208 209 214 229 225 231 207 167 167 160 144 156 171 175 185 173 170 176 166 172 175
351 350 349 346 344 342 342 343 341 339 336 333 331 330 331 325 296 284 303 289 279 260 218 235 224 215 251 278 280 238 206 213 216 212 214 213 216 218 206 201 206 207 209 213 220 229 224 217 219 221 229 232 225 226 231 236 229 214 218 227 229 228 227 233 228 207 201 206 208 209 222 229 204 160 168 172 152 148 164 173 179 180 171 174 175 171 175 175
350 349 348 346 344 340 340 342 340 337 336 332 332 332 334 329 289 274 285 265 249 233 232 251 252 232 241 249 250 242 220 206 208 212 208 204 211 217 210 200 201 202 204 210 213 220 221 212 217 219 219 224 221 217 220 222 224 218 213 219 226 232 234 229 228 207 196 206 209 208 218 227 212 175 184 204 176 165 171 173 180 175 171 175 175 178 177 177
350 349 348 347 344 340 339 340 339 335 333 331 335 337 337 335 293 248 237 242 226 233 252 231 208 231 304 279 241 239 255 212 196 207 204 196 203 213 210 200 200 202 201 206 204 205 214 208 211 221 215 215 216 217 222 222 229 232 223 222 220 225 233 233 232 200 187 207 211 211 217 218 219 200 195 211 197 184 179 169 174 180 178 177 179 183 179 181
351 349 348 347 343 340 337 338 338 333 331 328 328 331 340 359 338 243 264 285 271 270 285 281 236 248 285 296 272 234 246 218 191 203 201 190 195 205 204 197 198 203 205 206 198 196 211 215 213 218 215 213 216 221 227 227 233 241 236 228 223 225 227 234 242 202 178 211 215 215 222 217 220 210 194 195 193 199 190 166 170 185 182 176 182 184 178 183
351 349 347 346 343 339 335 337 335 330 331 323 318 324 10 7 346 326 323 299 281 270 272 275 265 261 264 274 280 265 257 230 201 204 199 187 192 199 192 193 198 202 205 206 199 193 209 223 220 216 216 217 217 220 227 229 230 238 245 241 230 229 225 226 240 209 177 206 219 214 224 223 223 215 195 187 192 203 201 179 172 177 181 178 181 183 178 179
350 348 346 344 343 338 333 336 332 325 328 319 317 349 14 355 334 316 313 295 285 271 263 265 263 264 260 259 266 270 278 251 211 202 194 185 193 197 183 189 201 201 197 202 203 195 209 228 223 215 214 219 222 219 221 228 230 231 241 250 243 236 227 220 236 224 185 192 224 217 222 224 222 223 211 200 203 209 209 201 176 168 178 179 177 180 176 176
350 349 345 343 344 338 334 335 328 322 322 313 333 9 356 339 330 317 306 288 287 275 258 252 245 247 249 250 254 254 256 242 218 201 190 188 196 195 187 190 201 203 195 201 207 200 209 224 220 216 215 217 222 221 218 222 230 229 230 240 245 242 236 217 228 230 201 189 214 218 222 224 218 223 224 216 217 220 211 208 200 179 174 174 177 177 174 177
350 349 346 343 341 339 337 333 326 330 324 315 349 4 347 335 331 326 314 281 279 273 251 242 236 232 232 232 233 234 234 232 227 205 188 192 197 194 198 195 197 206 200 202 210 214 221 219 210 214 217 217 219 221 219 217 222 228 229 233 237 240 246 243 232 230 209 195 203 214 225 227 220 222 223 219 220 225 216 202 207 195 169 169 175 176 177 176
349 349 347 344 340 338 337 332 339 342 325 326 1 353 339 335 332 329 319 284 277 268 241 231 229 229 225 221 217 218 223 225 228 213 191 194 197 192 201 200 199 210 205 203 212 221 226 220 205 208 214 217 219 219 220 218 219 224 226 232 238 239 244 250 249 239 221 204 196 203 226 230 222 225 223 220 217 222 225 212 206 191 169 172 173 175 179 174
348 348 348 344 338 338 340 342 348 332 317 341 0 341 333 335 333 327 311 280 282 263 217 198 192 205 208 206 201 200 218 226 222 222 202 194 199 198 201 203 204 212 207 204 214 226 227 224 215 208 210 214 218 220 218 218 223 224 221 224 234 242 244 245 248 244 238 228 199 193 214 230 215 219 219 218 221 218 218 220 216 196 178 177 169 171 178 174
347 346 346 343 338 341 340 325 329 324 321 352 344 332 331 331 327 320 303 271 275 228 157 160 157 171 188 191 182 182 209 208 202 223 214 190 194 204 207 205 203 210 209 203 215 220 216 221 220 212 209 211 216 220 214 215 223 227 221 217 222 234 244 246 247 247 249 252 221 197 208 232 228 222 216 213 220 223 216 216 219 202 184 174 162 168 177 177
345 344 345 342 337 340 323 290 308 322 336 341 333 327 327 323 316 307 288 283 300 98 118 126 110 166 202 188 181 189 209 175 180 214 214 194 191 200 212 211 208 206 205 209 216 211 208 217 220 214 212 212 214 216 211 213 222 227 225 223 218 221 232 241 247 253 254 255 245 217 210 221 234 229 219 210 211 221 220 215 216 202 182 173 165 169 175 177
343 342 344 340 335 344 328 279 275 305 329 333 329 324 318 312 305 289 258 273 299 25 104 158 118 197 211 183 186 201 214 204 189 192 202 200 193 200 218 215 216 211 208 219 225 216 210 213 219 220 218 214 214 215 211 212 221 221 222 231 228 218 220 228 237 248 253 252 250 241 232 225 230 226 216 209 206 217 222 212 215 208 181 175 174 169 173 177
340 340 343 339 333 342 334 292 276 318 333 330 324 320 312 302 286 259 250 249 289 347 26 140 75 159 196 187 192 206 214 227 228 180 191 200 192 201 219 216 222 222 213 221 229 230 226 210 211 223 225 215 212 215 211 213 218 214 215 227 232 227 220 218 225 234 243 245 239 244 249 246 242 234 226 220 204 213 223 206 212 211 180 176 181 169 172 177
338 338 340 336 328 325 319 308 322 334 331 324 320 316 304 287 255 247 255 285 310 335 1 16 9 356 266 219 200 205 213 228 240 199 190 194 190 198 211 209 219 226 218 219 223 229 233 221 205 214 225 219 209 214 213 209 213 213 208 214 221 224 222 217 213 215 229 238 228 233 244 246 242 231 232 235 207 206 222 217 217 206 177 178 188 177 173 172
336 337 336 329 319 305 287 297 322 325 322 321 318 312 297 277 249 234 256 298 310 352 2 353 348 342 319 290 239 213 209 219 236 224 196 192 192 195 206 207 201 208 216 214 210 216 227 231 218 204 214 219 209 206 211 206 205 208 203 204 212 208 205 212 208 212 228 237 229 226 229 236 244 236 236 243 222 204 214 223 227 203 178 181 185 179 172 163
335 335 328 318 314 295 273 294 316 320 322 320 312 300 287 270 256 252 265 274 311 3 354 342 337 328 316 305 270 226 208 204 223 229 206 195 198 198 207 213 207 207 216 209 204 206 212 225 227 211 201 212 214 203 202 202 194 200 202 197 207 205 194 204 208 219 232 234 231 228 225 232 241 235 233 240 238 222 213 213 221 205 181 179 177 180 180 168
334 335 320 306 292 271 274 308 323 324 321 316 306 289 273 259 262 274 272 275 323 350 347 342 333 320 306 293 278 256 228 202 208 222 211 197 202 204 205 212 214 214 219 214 207 208 210 212 218 217 196 194 211 212 202 198 190 197 205 203 211 210 198 204 208 217 228 228 223 221 224 234 235 227 225 230 233 235 231 215 213 205 179 173 178 183 187 181
335 336 314 304 283 259 291 325 329 326 320 310 300 287 271 262 265 265 283 322 343 348 342 333 320 308 300 285 276 273 262 223 205 213 215 204 206 209 204 208 214 214 213 215 209 207 217 217 207 214 209 192 202 211 206 200 194 194 201 207 214 208 203 214 215 215 224 230 219 214 222 232 240 245 230 226 223 220 228 229 220 207 179 173 183 184 188 188
332 328 315 314 310 300 323 334 331 322 316 306 296 290 272 275 291 309 350 356 350 342 334 327 313 297 289 281 270 258 267 264 225 212 214 215 215 216 212 207 209 214 214 213 213 206 216 222 201 204 213 206 198 199 205 211 199 185 198 209 209 205 211 225 223 217 220 229 223 214 224 222 230 245 228 223 228 217 213 218 226 221 184 174 184 184 187 191
325 317 308 299 309 330 333 335 329 313 308 310 301 302 294 298 322 342 352 351 345 338 328 321 318 305 293 298 293 291 327 318 257 230 211 212 220 219 218 214 207 213 219 220 226 220 218 224 202 197 206 208 196 192 206 219 213 191 195 203 202 206 215 228 236 224 217 229 227 216 226 218 206 227 218 212 225 224 214 210 215 226 199 180 188 187 183 190
311 299 290 280 310 343 342 330 317 301 305 318 294 296 301 305 322 334 338 340 339 334 321 306 308 308 307 316 315 323 340 335 295 273 226 207 216 216 219 222 210 210 217 223 233 229 224 231 208 200 201 197 186 189 204 216 220 220 201 190 198 207 204 208 228 230 221 227 226 220 232 227 205 207 203 206 211 213 223 217 206 217 212 190 196 187 173 181
302 290 290 3 354 349 339 316 300 297 307 309 298 301 306 307 322 330 328 329 332 329 317 310 313 310 309 317 317 321 326 318 314 308 262 225 215 207 246 281 234 219 214 215 225 234 230 237 215 197 193 187 180 191 202 205 214 226 217 194 201 212 202 201 215 229 229 228 223 222 232 239 230 207 190 201 203 197 216 227 206 210 209 193 202 187 165 174
308 291 354 30 8 347 330 305 283 285 295 297 304 308 313 317 324 327 324 325 327 326 319 317 315 309 309 314 313 318 322 314 314 309 297 321 37 50 25 5 334 314 256 224 224 228 230 241 237 197 186 188 188 193 199 197 198 213 218 201 194 203 205 205 210 220 231 235 229 225 226 233 236 212 192 199 196 183 200 223 210 207 203 194 202 187 163 170
306 287 329 359 358 344 326 300 279 322 303 305 316 313 324 328 314 317 324 322 319 316 316 314 307 303 308 314 317 326 326 318 318 305 300 347 17 24 10 357 346 340 324 277 230 219 221 234 236 216 194 197 198 193 197 201 199 200 210 208 196 194 200 206 208 208 219 238 242 239 247 254 252 202 189 187 175 169 188 210 203 202 204 193 192 192 174 169
302 312 316 332 355 343 324 298 324 344 304 325 325 309 321 322 309 321 329 318 315 314 309 303 301 303 307 314 322 330 323 313 315 305 304 338 346 347 357 350 338 325 309 302 251 223 226 233 228 231 230 210 194 189 195 204 207 204 207 212 203 196 199 209 208 196 205 224 235 246 254 293 42 42 153 146 151 163 182 198 186 195 213 197 188 198 182 164
327 322 313 345 17 349 320 303 331 329 319 335 324 307 312 314 312 324 326 321 322 317 310 307 307 307 312 317 317 320 322 311 300 299 313 335 339 339 345 341 331 326 322 326 302 240 228 235 226 230 245 219 189 186 195 203 210 209 206 209 211 204 199 207 214 200 202 210 212 232 238 180 82 62 91 91 132 163 172 189 183 187 222 202 181 193 177 156
326 302 302 355 10 344 313 322 333 327 324 324 318 312 313 316 329 334 328 328 328 322 320 317 316 313 310 311 304 304 316 309 294 313 330 334 324 323 333 339 330 322 335 355 342 306 245 239 225 220 242 220 187 183 191 199 209 215 205 203 212 212 200 200 212 209 207 207 201 211 229 181 107 105 110 97 187 189 164 183 188 177 207 210 178 181 166 152
316 299 301 342 349 335 310 321 323 319 321 320 318 318 317 325 346 339 319 316 324 331 329 317 316 315 303 302 301 296 304 300 303 332 350 341 323 317 332 340 326 307 333 342 324 311 296 269 244 224 224 215 196 191 195 193 199 217 212 200 206 215 207 198 204 211 207 197 197 210 223 166 123 112 112 140 206 205 158 174 192 166 179 212 173 160 155 152
315 313 320 335 338 325 295 306 323 324 322 322 319 320 320 325 340 330 306 311 334 338 328 321 324 322 309 310 310 299 304 311 320 353 354 335 327 321 330 334 322 319 340 326 299 298 293 279 272 245 230 225 186 168 201 201 194 207 216 203 198 209 213 204 199 210 203 185 198 212 193 147 140 151 181 180 191 185 155 172 184 139 94 57 74 89 102 127
312 314 328 339 329 315 311 321 329 323 315 316 314 310 316 320 325 320 305 315 335 334 325 324 333 326 315 319 315 303 313 329 347 1 339 328 334 326 327 327 320 335 347 320 279 295 296 272 265 246 240 241 201 90 324 238 207 203 212 209 197 200 211 212 203 197 188 186 199 183 155 158 164 167 171 157 147 130 146 161 158 119 96 84 79 85 96 105
320 309 328 338 322 310 318 319 317 313 307 307 302 299 312 315 307 309 323 326 322 334 340 319 317 318 313 316 316 308 318 336 352 355 337 333 337 330 329 326 319 339 349 323 288 326 305 274 266 249 247 247 237 243 297 303 271 216 211 211 200 196 204 211 209 197 186 193 202 165 148 166 156 139 136 138 144 132 105 126 128 103 98 102 101 114 126 121
323 302 322 337 322 304 305 305 307 309 306 303 300 299 303 298 296 313 330 318 308 318 327 303 312 325 317 312 311 304 315 333 336 339 337 331 329 328 331 324 319 338 341 320 311 2 324 274 274 259 252 250 246 246 249 279 306 282 231 214 203 197 201 207 213 206 191 195 206 179 165 176 139 137 150 145 141 140 117 113 120 116 115 113 119 149 148 134
324 313 320 325 312 299 298 302 305 305 302 300 300 300 286 285 301 321 317 314 321 322 312 301 313 321 314 308 304 294 307 323 315 311 313 311 317 324 325 315 315 329 330 322 335 359 338 275 276 273 263 255 251 252 252 250 269 286 267 222 203 198 199 200 209 211 196 193 206 190 173 178 152 148 161 148 128 134 115 99 115 129 136 143 163 175 158 148
307 307 308 307 300 294 297 305 304 298 298 302 302 302 290 294 310 314 307 325 333 297 298 309 315 317 312 306 302 299 315 323 299 293 294 290 295 302 298 296 303 314 321 327 339 342 332 301 281 279 271 260 256 251 242 231 240 271 278 231 203 201 203 196 201 213 201 186 198 197 180 175 156 144 147 133 103 83 75 91 115 87 71 109 153 159 145 150
302 307 310 307 292 287 294 303 303 298 299 304 302 298 296 302 308 301 298 326 299 278 288 301 303 307 309 304 303 309 319 314 292 288 288 280 277 275 273 281 288 295 306 318 326 329 334 333 311 289 270 255 261 253 231 213 234 260 275 251 217 211 210 199 196 209 209 195 195 196 177 181 197 179 149 129 123 125 113 100 80 52 37 28 29 29 21 113